Weather History for Richmond Hanover County, VA

Change the Weather History Date:

Wednesday, March 13, 2013

  Actual Average Record
Temperature  
Mean Temperature 40 °F -  
Max Temperature 52 °F 58 °F 89 °F (1990)
Min Temperature 30 °F 36 °F 7 °F (1960)
Degree Days  
Heating Degree Days 24    
Moisture  
Dew Point 28 °F    
Average Humidity 63    
Maximum Humidity 100    
Minimum Humidity 36    
Precipitation  
Precipitation 0.01 in - - ()
Sea Level Pressure  
Sea Level Pressure 30.00 in    
Wind  
Wind Speed 5 mph (West)    
Max Wind Speed 20 mph    
Max Gust Speed 28 mph    
Visibility 8 miles    
Events      
Averages and records for this station are not official NWS values.
T = Trace of Precipitation, MM = Missing Value Source: NWS Daily Summary

Daily Weather History Graph

Daily Weather History Graph

Search for Another Location

Airport:

Trip Planner

Search our weather history database for the weather conditions in past years. The results will help you decide how hot, cold, wet, or windy it might be!

Date:

Astronomy

Mar. 13, 2013 Rise Set
Actual Time 7:23 AM EDT 7:15 PM EDT
Civil Twilight 6:57 AM EDT 7:41 PM EDT
Nautical Twilight 6:27 AM EDT 8:11 PM EDT
Astronomical Twilight 5:56 AM EDT 8:42 PM EDT
Moon 8:04 AM EDT (3/13) 9:26 PM EDT (3/13)
Length of Visible Light 12h 44m
Length of Day
11h 51m
Waxing Crescent, 4% of the Moon is Illuminated
Mar 13
Waxing Crescent
Mar 19
First Quarter
Mar 27
Full
Apr 3
Last Quarter
Apr 10
New

Hourly Weather History & Observations

Time (EDT) Temp. Windchill Dew Point Humidity Pressure Visibility Wind Dir Wind Speed Gust Speed Precip Events Conditions
12:54 AM 42.1 °F 40.2 °F 30.9 °F 65% 29.97 in 10.0 mi NNW 3.5 mph - N/A   Clear
1:54 AM 39.9 °F - 30.9 °F 70% 29.98 in 10.0 mi Calm Calm - N/A   Clear
2:54 AM 34.0 °F - 32.0 °F 92% 29.99 in 9.0 mi Calm Calm - N/A   Clear
3:54 AM 33.1 °F - 32.0 °F 96% 30.00 in 8.0 mi Calm Calm - N/A   Clear
4:54 AM 32.0 °F - 30.9 °F 96% 30.01 in 6.0 mi Calm Calm - N/A   Clear
5:54 AM 30.9 °F - 30.0 °F 96% 30.00 in 6.0 mi Calm Calm - N/A   Clear
6:54 AM 30.0 °F - 30.0 °F 100% 30.01 in 4.0 mi Calm Calm - N/A   Clear
7:31 AM 30.2 °F - 28.4 °F 93% 30.02 in 2.0 mi Calm Calm - N/A   Clear
7:49 AM 30.2 °F - 30.2 °F 100% 30.02 in 3.0 mi Calm Calm - N/A   Clear
7:54 AM 30.9 °F - 30.9 °F 100% 30.02 in 3.0 mi Calm Calm - N/A   Clear
8:54 AM 39.0 °F 36.8 °F 34.0 °F 82% 30.02 in 7.0 mi South 3.5 mph - N/A   Clear
9:54 AM 45.0 °F 41.2 °F 32.0 °F 60% 30.02 in 10.0 mi SSW 6.9 mph - N/A   Clear
10:54 AM 48.0 °F - 30.0 °F 50% 30.00 in 10.0 mi SW 11.5 mph 20.7 mph N/A   Clear
11:54 AM 50.0 °F - 28.9 °F 44% 29.98 in 10.0 mi SSW 9.2 mph - N/A   Clear
12:54 PM 50.0 °F - 26.1 °F 39% 29.97 in 10.0 mi SW 11.5 mph 20.7 mph N/A   Overcast
1:54 PM 51.1 °F - 26.1 °F 38% 29.95 in 10.0 mi NW 15.0 mph 23.0 mph N/A   Overcast
2:29 PM 50.0 °F - 24.8 °F 37% 29.94 in 10.0 mi WSW 19.6 mph 27.6 mph N/A   Overcast
2:54 PM 50.0 °F - 24.1 °F 36% 29.93 in 10.0 mi West 13.8 mph 25.3 mph N/A   Overcast
3:54 PM 45.0 °F 40.1 °F 33.1 °F 63% 29.96 in 10.0 mi SW 9.2 mph 20.7 mph 0.01 in   Mostly Cloudy
4:54 PM 48.9 °F - 28.9 °F 46% 29.95 in 10.0 mi West 19.6 mph 24.2 mph N/A   Partly Cloudy
5:54 PM 50.0 °F - 27.0 °F 41% 29.95 in 10.0 mi WSW 11.5 mph 19.6 mph N/A   Partly Cloudy
6:54 PM 46.9 °F - 24.1 °F 41% 29.98 in 10.0 mi West 13.8 mph 23.0 mph N/A   Partly Cloudy
7:54 PM 44.1 °F 40.8 °F 24.1 °F 45% 30.01 in 10.0 mi NW 5.8 mph - N/A   Mostly Cloudy
8:54 PM 44.1 °F 37.1 °F 21.0 °F 40% 30.03 in 10.0 mi WNW 15.0 mph 18.4 mph N/A   Mostly Cloudy
9:54 PM 39.9 °F 30.8 °F 19.9 °F 45% 30.07 in 10.0 mi WNW 18.4 mph 26.5 mph N/A   Scattered Clouds
10:54 PM 37.9 °F 29.2 °F 18.0 °F 45% 30.09 in 10.0 mi WNW 15.0 mph 20.7 mph N/A   Clear
11:54 PM 35.1 °F 27.9 °F 17.1 °F 48% 30.10 in 10.0 mi NW 9.2 mph - N/A   Clear